Location: D�pe
(52.6057°N, 8.1808°E)
Time: 06:25:32
(UTC+00:00)

Cosmos 1745 Rocket - Pass Details

Date: 29 October 2020
Orbit: 953 x 997 km, 83.0° (Epoch: 01 December)

Event Time Altitude Azimuth Distance (km) Brightness Sun altitude
Rises 18:05:29 0° 348° (NNW) 3,693 7.2 -19.2°
Reaches altitude 10° 18:08:00 10° 346° (NNW) 2,748 6.5 -19.5°
Maximum altitude 18:14:16 71° 265° (W) 1,049 4.3 -20.5°
Drops below altitude 10° 18:20:33 10° 183° (S) 2,754 6.3 -21.4°
Sets 18:23:05 0° 181° (S) 3,702 7.0 -21.8°
